Theta_e
324 321 319 318 319 317 318 313 301 301 301 294 292 295 293 300 303 300 299 302 301 304 306 305 305 308 307 304 306 306 311 304 304 299 299 307 331 339 340 340 340 340 339 340 342 344 345 347 348 348 346 346 345 345 344 344 344 344 343 343 343 342 340 340 343 342 340 342 343 348 348 347 347 346 346 346 347 346 346 347 346 346 347 346 346 347 347 346 346 346 346 345 346 344 344 344 343
322 320 317 317 316 318 312 308 296 297 295 292 296 296 297 301 301 300 299 300 300 305 305 304 305 306 305 304 306 312 312 318 319 311 322 332 336 337 341 340 340 338 339 341 342 343 343 345 348 348 347 346 345 345 344 343 343 343 343 343 343 341 339 342 344 343 340 343 344 347 348 347 347 346 346 346 347 346 346 347 347 347 346 347 347 346 346 346 345 345 345 345 345 344 343 342 341
323 315 313 317 318 316 312 308 298 291 291 289 294 297 300 299 300 300 300 302 305 305 304 305 306 306 306 305 307 307 306 322 323 323 325 332 332 333 340 340 340 340 340 342 342 342 342 344 347 347 346 345 345 344 343 343 343 343 343 343 342 340 341 343 344 342 341 344 345 347 347 347 347 346 346 346 347 346 347 347 346 345 346 347 345 345 346 345 344 345 344 343 344 342 343 342 341
315 311 311 313 310 311 304 300 294 293 291 292 292 300 299 301 300 301 303 302 303 304 305 306 305 308 308 305 308 317 315 319 324 325 325 327 329 338 339 340 341 340 341 342 342 342 342 345 346 347 346 345 345 343 343 343 343 343 343 343 342 341 343 344 344 340 343 345 346 347 347 347 347 346 346 347 346 346 346 346 345 345 345 345 344 344 344 343 342 342 342 342 342 342 342 342 341
309 310 314 312 308 307 303 297 294 293 293 293 293 299 300 302 301 301 303 303 304 304 305 306 305 309 312 308 309 311 314 323 326 327 327 329 340 340 339 340 340 340 340 341 342 342 342 345 345 346 346 343 344 343 343 343 344 343 343 343 342 343 344 345 344 343 344 345 347 347 347 347 347 346 346 347 346 346 346 345 344 345 345 344 344 343 343 342 341 340 340 342 342 343 342 341 340
307 309 315 315 307 309 303 298 295 294 299 299 297 299 302 304 307 304 303 304 305 304 305 305 307 307 307 309 313 314 323 317 325 327 329 331 340 341 340 339 339 340 341 341 341 341 342 344 344 345 346 345 345 344 344 344 344 343 343 343 343 344 345 345 344 345 345 346 346 347 347 346 346 345 346 345 346 347 346 345 345 344 344 343 343 343 342 341 340 340 339 339 342 342 342 341 340
305 308 312 312 308 307 296 291 294 296 301 302 301 303 305 306 309 305 304 303 307 307 307 308 306 305 305 310 315 323 327 327 327 327 332 337 341 341 340 339 339 339 340 340 340 341 342 343 344 345 346 345 344 344 345 344 344 343 343 344 344 345 345 344 345 346 346 346 347 347 346 346 346 345 345 345 345 345 345 345 344 343 343 343 342 342 341 340 340 339 339 338 339 340 340 340 340
313 306 307 299 297 300 294 293 295 297 299 303 306 307 308 309 310 308 309 305 303 306 307 307 306 303 304 314 310 323 331 332 332 334 338 341 341 340 340 340 338 338 339 339 340 341 344 343 343 344 345 345 344 345 345 343 344 343 344 344 345 345 345 346 347 346 346 347 347 346 346 346 345 345 345 345 345 346 345 345 344 344 343 342 341 341 340 339 340 339 338 338 338 338 339 339 339
305 306 307 300 296 296 291 294 294 298 299 301 304 307 312 310 311 309 307 306 304 305 307 307 305 301 303 315 315 320 327 332 333 336 340 340 340 340 341 339 338 338 339 339 340 341 342 342 343 343 344 345 345 345 345 344 344 344 344 345 345 345 346 346 346 346 346 345 346 346 346 345 345 345 345 345 344 344 344 344 343 343 342 341 341 340 340 339 340 339 338 337 337 338 339 339 339
304 306 300 297 294 294 292 291 293 295 298 300 302 305 307 307 307 308 307 307 308 306 306 307 306 305 306 311 315 320 326 331 333 334 339 340 340 341 340 340 339 339 339 339 340 341 341 343 342 342 342 343 344 345 345 346 346 345 345 345 346 346 346 346 346 346 346 346 345 345 345 345 345 343 343 343 343 344 343 343 343 342 341 340 340 340 339 339 339 339 338 337 337 337 338 338 338
297 303 302 298 291 290 291 290 294 298 299 300 302 306 306 307 307 306 307 308 308 307 307 307 307 304 306 311 315 322 328 331 331 331 336 339 340 340 340 340 340 340 339 339 340 341 341 342 343 341 341 342 343 344 345 346 347 347 346 347 346 346 346 346 346 346 345 345 344 345 344 346 345 344 343 342 341 342 343 342 342 341 340 340 340 339 339 339 339 339 338 337 337 337 338 338 337
295 296 297 291 289 290 289 291 292 294 295 296 297 301 304 304 304 304 306 305 308 309 306 308 307 306 305 312 316 323 330 330 330 332 334 337 339 340 340 340 340 340 340 340 340 340 341 341 342 343 340 340 341 341 343 344 346 347 346 346 346 345 346 346 345 344 344 344 344 344 344 345 345 344 342 340 339 340 341 342 342 341 341 340 339 338 338 339 339 338 338 337 337 336 337 337 337
294 294 290 288 286 291 290 291 291 296 291 294 296 300 304 303 302 300 301 305 307 308 308 310 312 308 304 311 318 324 328 329 331 334 334 335 338 340 340 340 340 340 340 340 339 339 340 340 340 341 340 339 339 339 341 342 344 346 345 345 346 346 345 345 344 344 343 343 343 345 344 345 345 343 341 339 338 340 340 338 340 342 341 340 338 338 339 339 339 338 337 337 336 336 337 337 336
295 295 292 289 288 288 290 288 287 291 287 291 297 300 301 301 301 299 303 301 305 307 309 311 310 317 315 316 318 321 326 329 332 333 334 334 336 337 338 339 338 339 340 340 338 339 339 339 340 339 339 338 337 338 339 339 341 343 343 343 344 345 345 344 344 344 343 343 343 343 344 344 344 341 340 338 337 337 336 336 338 342 341 340 338 338 339 339 339 338 337 337 336 336 335 335 334
296 298 289 287 284 287 288 290 288 288 288 294 298 298 298 303 299 298 301 297 303 310 311 315 312 312 310 314 313 321 327 331 332 332 333 336 337 337 337 338 338 338 339 339 339 338 338 339 339 338 338 337 336 336 338 339 338 339 340 341 342 342 342 342 341 341 341 340 340 341 341 342 341 339 338 337 336 336 335 334 335 340 341 340 339 339 339 339 339 338 336 336 336 336 335 334 332
299 295 292 287 285 286 287 290 290 289 289 296 296 297 296 299 299 296 301 299 302 309 314 313 323 315 308 319 317 327 330 331 331 332 334 335 336 336 337 337 337 338 338 339 339 339 338 338 338 338 338 337 335 335 336 337 336 336 337 339 339 339 339 338 337 337 336 336 336 336 337 338 337 336 337 335 333 333 335 329 331 334 341 341 340 340 340 339 339 338 336 336 336 335 334 333 332
297 294 287 285 286 286 289 288 289 286 293 293 295 295 292 295 298 298 301 303 304 307 310 312 312 325 323 324 325 331 331 330 329 331 332 332 334 334 335 335 336 337 338 338 339 339 338 338 337 337 337 336 335 334 335 335 337 335 335 336 336 335 336 335 334 333 332 332 331 332 334 333 331 331 332 329 332 329 327 326 328 331 337 340 341 341 340 340 339 338 337 337 336 335 335 333 333
292 288 285 285 286 285 290 289 287 290 290 291 292 293 293 293 295 297 300 299 300 304 302 304 309 316 328 328 330 331 331 330 330 329 328 328 330 331 333 334 335 334 336 337 339 339 339 338 337 337 337 336 335 335 335 335 335 336 335 335 336 334 333 333 333 334 337 334 329 332 332 331 329 328 326 331 325 326 325 325 327 330 333 335 338 340 340 340 339 338 337 337 335 335 334 330 328
289 285 284 284 284 288 290 290 291 290 290 292 293 294 293 293 294 296 294 294 298 296 297 298 300 304 323 328 329 328 329 328 327 327 326 326 328 330 331 333 334 335 335 336 337 339 339 338 338 337 337 336 334 334 335 334 334 334 333 334 334 332 334 333 332 333 332 331 331 331 329 329 327 326 326 327 325 323 325 324 327 329 331 332 335 336 337 339 339 338 337 337 336 335 330 323 323
289 285 281 284 288 287 290 292 291 292 292 291 292 293 293 294 295 297 293 293 299 293 294 296 297 298 306 323 322 323 326 327 327 325 324 325 327 329 330 332 333 334 335 336 337 339 339 339 339 338 336 335 334 333 333 333 332 332 332 332 331 331 329 329 329 329 329 329 329 329 328 327 326 326 331 332 332 322 323 323 325 327 328 329 331 333 334 334 337 337 336 336 334 328 324 320 321
287 284 282 284 286 285 288 292 292 291 292 291 291 293 292 294 295 294 293 293 292 294 296 295 295 297 301 321 319 321 322 324 324 324 323 323 324 327 330 332 332 334 336 337 337 337 338 339 339 339 337 335 334 333 332 332 332 331 331 331 330 329 328 327 327 327 328 327 326 327 326 325 325 325 325 326 322 320 319 319 320 321 321 322 327 321 324 327 329 326 326 326 324 322 319 320 320
287 284 286 286 287 286 290 290 293 290 291 289 290 290 291 295 294 293 293 289 290 293 296 297 297 299 301 319 321 323 322 323 324 323 324 324 324 325 328 328 330 332 334 335 336 337 338 339 339 339 338 336 335 334 333 332 332 331 330 330 330 328 328 326 326 326 327 327 325 325 325 324 324 324 324 323 322 320 319 319 320 320 319 319 320 321 320 322 322 324 323 321 321 321 320 319 318
281 283 285 287 288 287 290 290 291 289 289 288 289 291 292 290 290 292 293 291 293 297 297 298 298 300 301 318 322 321 321 321 321 322 324 323 325 325 327 329 330 330 331 334 336 337 337 338 338 338 338 337 335 334 334 332 332 332 331 330 330 328 327 326 325 325 326 326 325 324 324 323 322 322 323 322 321 320 320 320 319 319 321 320 322 322 320 320 322 322 322 321 320 319 319 317 317
286 283 286 288 288 288 289 289 290 288 288 288 290 293 289 289 287 292 291 293 294 296 297 297 297 298 299 301 318 320 322 322 321 323 323 324 324 325 327 329 331 331 331 332 334 336 336 337 338 338 338 337 336 335 334 332 332 332 331 329 330 329 327 327 326 326 326 326 326 325 324 323 322 321 322 322 322 320 320 320 320 319 321 320 322 322 322 320 320 320 320 316 318 317 318 318 318
286 284 287 288 288 288 289 289 288 289 288 289 290 288 288 289 289 291 291 294 294 294 296 296 296 295 295 298 301 316 322 322 322 323 323 324 325 325 325 328 330 330 330 330 333 335 336 337 338 338 337 337 337 336 334 333 333 332 331 330 330 328 329 328 327 326 325 326 326 325 323 322 321 321 321 323 322 320 320 320 319 320 320 320 321 321 322 321 320 319 318 318 318 318 317 317 317
288 287 288 287 288 288 288 288 288 288 288 291 287 286 288 290 292 290 292 293 294 295 295 295 295 295 294 296 301 302 305 320 322 323 323 325 326 325 325 326 327 329 331 331 331 334 336 338 338 337 337 337 337 336 334 333 332 331 331 330 330 327 329 329 327 326 326 326 325 325 324 324 322 321 321 322 322 321 320 320 319 320 320 320 320 321 320 321 321 319 317 317 317 317 317 318 316
290 288 287 287 288 287 288 285 286 287 287 288 287 285 287 290 290 285 290 295 297 296 296 296 295 294 294 295 299 300 306 310 317 324 324 324 324 325 325 325 325 329 331 330 330 331 334 337 337 338 338 336 337 336 335 333 332 331 331 331 330 328 329 329 327 327 326 326 326 325 325 324 323 321 321 322 321 322 320 320 319 320 319 319 320 321 320 321 321 321 320 319 317 317 317 318 317
289 288 288 287 287 287 287 287 288 286 285 286 287 287 289 290 290 288 292 296 297 295 295 295 295 294 294 294 295 301 306 307 313 322 323 322 322 325 324 326 325 326 327 329 331 331 333 336 337 338 338 337 336 336 335 334 332 332 331 331 330 329 329 328 327 327 325 326 326 325 325 324 323 321 321 321 321 321 321 320 320 319 319 319 319 320 319 319 320 320 321 321 319 318 318 318 317
289 289 284 285 284 283 287 286 287 285 285 287 288 287 285 287 287 292 294 295 295 294 294 295 295 294 294 293 294 296 301 306 306 307 310 323 323 323 324 326 328 328 329 330 331 330 331 335 336 337 338 336 336 335 334 336 335 333 332 331 330 329 329 328 327 326 326 326 326 326 325 324 322 322 320 321 321 321 321 320 320 319 320 320 319 320 320 319 318 317 318 319 318 318 317 318 317
288 286 284 282 282 280 287 288 289 287 289 290 289 276 282 286 289 292 293 294 294 294 294 295 295 294 293 293 292 295 302 302 301 303 307 315 322 324 321 319 320 326 329 329 329 329 330 333 336 336 336 335 335 335 334 333 334 334 333 334 332 330 329 328 326 326 326 326 325 325 325 325 323 322 321 320 321 321 321 321 320 320 320 319 319 319 319 318 317 317 317 316 317 317 317 317 316
282 283 284 279 277 277 286 286 287 287 290 290 288 280 281 286 289 291 293 296 294 292 294 295 293 291 292 293 300 300 300 300 300 301 304 307 312 316 315 315 314 314 315 322 328 329 331 331 333 335 334 335 333 333 332 333 332 334 333 334 334 332 331 329 328 326 326 326 325 325 325 325 323 323 322 321 321 321 320 320 320 320 320 319 319 318 319 318 318 318 317 316 316 316 316 316 316
285 279 277 278 277 279 285 287 287 285 289 290 285 279 281 286 289 293 295 296 295 293 293 294 294 294 295 296 297 297 297 298 298 299 300 303 305 309 310 309 311 311 311 313 314 316 321 326 331 332 332 333 333 332 332 332 331 333 334 333 335 334 333 331 329 328 327 326 325 325 325 325 324 323 323 322 321 320 320 320 320 320 320 319 319 318 318 318 317 318 317 317 316 315 314 315 314
281 280 278 278 279 279 280 285 286 289 288 289 285 279 283 286 291 293 295 294 293 292 291 292 293 293 294 294 295 295 295 295 295 296 297 299 301 302 303 304 305 306 305 307 308 311 313 318 319 320 329 330 330 330 331 331 331 331 332 333 334 332 333 333 332 331 329 326 325 325 325 325 324 323 323 323 322 320 320 320 320 321 320 319 318 318 318 318 317 318 317 316 317 316 314 314 314
278 280 278 280 277 279 276 284 286 289 287 283 287 283 283 287 290 292 293 292 291 291 290 291 291 292 292 293 293 293 293 293 293 294 295 296 298 299 300 301 301 302 303 302 303 305 309 311 313 313 313 317 330 329 328 330 331 330 329 330 330 332 332 333 333 332 330 327 325 325 325 325 324 324 323 322 322 322 321 320 320 320 320 320 319 318 318 318 317 317 317 316 316 317 315 314 314
277 277 276 276 278 279 278 278 283 287 287 284 284 284 284 286 288 290 291 292 290 289 290 289 289 289 290 291 290 291 291 291 292 293 294 295 295 296 297 298 298 298 299 299 300 301 303 305 307 307 308 312 313 316 324 328 329 329 329 328 329 330 331 331 332 331 331 330 325 325 325 325 323 324 323 322 322 321 320 320 319 319 319 319 318 318 318 317 316 316 316 316 314 315 316 315 315
279 278 277 276 275 276 278 282 285 287 284 283 283 282 283 285 286 289 290 291 290 289 289 288 288 288 288 288 289 289 289 290 292 293 294 294 295 295 295 297 297 297 297 297 298 299 299 301 303 303 305 307 308 311 314 320 328 327 327 328 328 328 329 328 330 331 331 331 327 325 325 324 324 324 324 323 322 321 321 320 320 320 319 320 318 317 317 317 316 315 316 316 315 314 313 314 311
281 281 280 279 277 278 281 282 288 290 286 284 284 284 284 285 286 287 289 290 289 288 287 287 287 287 287 287 287 288 288 289 292 292 293 293 294 294 294 295 295 295 295 296 296 296 296 298 298 300 302 303 304 306 309 313 317 325 326 327 326 327 326 327 328 329 330 331 330 327 325 325 324 324 324 323 323 321 322 321 320 320 320 320 319 319 318 318 318 318 318 316 316 315 315 313 311
280 279 280 280 280 277 282 283 288 290 285 282 284 283 284 285 286 287 289 288 287 287 287 286 286 286 287 287 287 287 288 290 291 290 291 292 292 293 293 293 294 292 293 295 295 295 297 296 296 298 300 301 302 303 306 309 313 316 324 325 326 327 326 324 325 328 330 329 329 330 328 326 325 324 323 324 323 323 322 321 321 321 321 320 320 320 319 317 317 318 318 315 315 316 316 315 313
278 280 280 280 280 281 284 286 289 289 286 281 283 282 283 285 286 287 287 287 288 289 288 287 287 286 286 287 287 288 288 288 289 289 290 291 291 292 292 292 292 293 293 293 294 295 295 295 295 297 298 299 300 302 304 305 309 312 316 322 327 326 327 328 328 328 329 329 330 330 329 328 326 325 324 323 324 323 323 322 322 322 321 321 319 319 318 318 318 318 318 318 316 315 316 314 314
276 279 279 279 283 282 279 284 287 288 285 281 281 280 282 285 287 287 288 288 288 289 290 289 288 287 287 287 287 287 287 287 287 288 288 289 290 290 291 291 292 293 292 292 292 293 293 295 295 296 296 298 298 300 303 305 306 308 311 312 313 320 322 322 325 327 327 328 329 330 330 329 329 326 326 325 324 324 324 323 323 322 322 322 321 320 320 319 319 318 319 319 319 317 317 316 316
278 280 279 281 281 283 283 283 285 287 286 286 282 280 280 282 282 284 288 290 289 288 289 289 288 288 289 289 289 288 287 287 287 287 288 288 288 288 290 290 291 291 291 291 292 292 293 292 294 295 296 296 297 299 300 302 303 303 305 307 308 309 311 311 312 311 316 324 326 327 329 330 330 329 327 326 324 325 325 325 324 324 323 323 322 322 321 321 321 321 321 320 320 319 318 318 318
275 276 280 281 283 283 284 285 283 280 280 284 283 275 274 281 282 282 285 286 286 288 287 287 287 288 287 286 287 288 289 289 288 287 287 288 288 288 289 289 289 289 289 291 292 292 292 292 293 293 295 296 296 297 299 300 300 300 300 300 300 302 303 303 304 305 309 311 315 319 322 327 329 329 328 327 326 325 325 324 325 325 324 323 323 324 323 323 322 322 322 322 321 321 320 319 318
271 275 281 282 282 284 284 284 282 277 274 280 283 275 271 280 279 282 283 284 284 287 286 286 287 287 287 286 287 287 287 288 289 288 288 288 287 287 287 288 289 288 289 290 291 291 292 292 293 293 293 293 295 296 298 299 298 298 298 299 300 300 301 301 304 305 306 308 311 311 313 317 316 320 325 327 327 326 325 325 325 325 325 325 324 325 325 324 324 323 323 323 323 322 321 318 318
274 279 281 280 280 280 283 282 280 277 281 280 282 279 273 273 277 282 283 283 283 283 284 285 285 286 286 287 287 287 287 287 287 287 287 287 287 287 286 287 287 288 290 290 290 290 290 291 291 292 293 293 293 295 295 298 297 296 296 297 298 298 299 299 301 302 304 304 306 307 308 310 311 314 313 314 314 317 322 326 326 326 326 326 325 325 325 325 325 326 325 325 324 324 322 320 319
276 281 281 280 280 280 284 281 278 279 278 275 279 282 273 272 277 282 282 280 281 282 283 284 285 285 286 287 288 287 287 287 286 286 286 286 287 287 287 287 288 288 289 289 289 289 290 290 290 291 291 292 293 294 294 295 296 296 296 295 295 297 299 299 300 300 300 302 302 304 305 306 307 309 309 309 309 310 312 314 320 326 326 326 325 325 325 325 325 325 325 325 324 324 324 323 322
279 281 283 285 283 284 285 279 278 278 275 272 276 279 271 272 277 278 281 279 280 281 283 284 285 285 284 285 286 287 287 287 287 286 286 285 286 286 287 287 287 288 288 289 289 289 289 289 289 290 290 290 291 292 293 293 294 295 294 295 295 295 297 298 298 297 298 299 299 301 302 302 303 304 305 306 306 306 308 311 313 314 321 326 324 325 325 325 325 325 325 325 325 324 325 324 322
282 280 278 280 283 282 280 276 278 273 271 274 277 277 276 269 275 276 276 276 280 283 283 284 285 284 284 284 284 286 285 286 286 287 286 286 286 286 286 286 286 287 287 288 288 288 288 288 288 288 289 290 290 290 291 291 292 293 293 294 294 294 295 295 295 295 295 296 297 298 299 300 301 301 302 303 303 304 305 307 308 310 313 317 323 325 325 325 325 325 326 326 325 325 325 325 322
278 276 275 275 274 274 270 264 267 267 265 274 276 276 276 267 273 278 279 281 281 282 281 282 283 284 285 284 284 285 285 285 285 285 285 285 285 285 285 285 285 285 286 286 286 286 286 287 287 287 288 289 289 290 290 290 291 291 292 293 293 294 294 294 295 295 295 295 296 296 298 299 298 299 300 300 300 301 303 304 305 307 309 311 313 318 325 326 326 326 326 326 326 326 326 324 324
278 275 274 269 264 263 265 267 268 265 267 275 276 276 270 271 274 276 278 279 280 281 282 282 282 283 284 285 285 285 284 284 283 283 283 283 283 284 284 284 284 284 285 285 285 285 285 285 286 286 286 288 288 289 289 289 289 290 290 291 291 293 292 292 293 294 295 294 295 295 296 296 296 296 298 298 298 299 300 301 303 304 305 307 308 312 313 318 325 325 325 325 325 325 325 325 324
275 272 264 264 262 260 257 262 268 264 268 276 275 275 270 274 276 277 278 278 280 281 282 283 283 282 282 283 284 284 284 284 283 282 282 282 282 282 283 283 283 284 284 285 285 285 284 284 284 285 285 286 287 288 288 288 288 289 290 290 290 290 290 292 293 293 294 293 294 294 295 295 294 295 296 297 298 298 299 300 302 303 304 304 306 308 310 313 315 322 325 324 324 325 326 325 325
274 275 272 267 265 263 260 263 265 264 266 270 273 269 262 270 273 279 280 280 280 281 281 282 282 282 282 282 282 282 283 283 283 282 282 282 282 282 282 282 282 282 283 284 284 284 284 283 283 283 284 285 286 287 287 287 288 288 289 289 289 290 290 289 290 292 292 293 294 294 295 295 294 294 295 296 296 296 297 298 300 301 301 302 303 304 306 307 310 312 317 323 325 325 326 325 325
273 274 274 267 264 267 264 261 263 263 266 264 267 267 267 275 279 281 281 281 280 282 282 283 283 283 282 282 282 282 283 283 283 282 282 281 282 281 281 282 282 282 282 282 283 283 283 283 283 283 283 284 285 286 286 286 287 288 288 288 288 289 290 289 290 290 290 290 291 292 293 293 294 294 294 294 294 294 294 295 297 298 299 301 301 302 302 304 305 307 310 313 316 324 324 324 324
272 272 265 269 274 272 264 263 265 269 268 261 265 271 275 277 278 280 280 279 279 279 281 281 281 282 281 281 282 282 282 282 282 282 281 281 281 280 281 281 281 281 282 282 282 282 282 283 282 282 283 283 284 285 285 286 286 286 287 287 288 288 288 288 288 289 289 290 290 290 290 290 290 291 292 292 292 293 292 293 293 295 296 298 299 300 300 301 303 304 306 307 310 313 316 322 324
273 266 271 277 277 273 267 263 256 255 259 260 267 266 271 268 265 277 279 278 278 278 279 279 279 279 281 282 281 281 282 282 282 282 281 281 281 281 280 281 280 281 281 281 282 282 282 282 282 282 282 282 283 284 285 285 285 286 286 286 287 288 288 287 288 288 288 288 289 289 290 289 289 290 290 290 290 290 290 291 291 291 292 293 294 296 297 299 301 302 303 304 306 308 310 312 318
275 274 273 273 262 262 261 256 257 257 254 255 261 268 271 272 272 274 276 277 278 277 278 277 278 280 280 280 281 282 282 281 282 281 280 281 280 280 280 280 280 280 281 281 281 282 282 281 282 281 281 282 282 283 284 285 285 285 286 286 286 287 287 287 287 288 287 287 288 288 289 289 289 289 289 289 289 289 289 289 290 290 290 291 291 292 294 296 298 299 300 301 303 305 306 307 310
275 276 274 270 268 265 261 264 260 258 254 255 258 261 264 274 275 276 278 277 278 277 276 277 278 279 279 279 280 281 281 281 281 281 281 281 281 280 281 280 280 280 280 281 280 281 280 281 281 281 281 281 282 282 283 283 284 284 284 285 285 286 287 287 286 287 286 286 287 288 288 288 288 289 288 289 288 288 288 288 289 289 289 289 290 290 291 292 295 296 297 298 300 303 304 305 307
272 273 270 271 267 269 268 265 263 260 254 253 254 257 262 271 276 277 278 278 278 278 278 278 278 279 279 279 280 280 281 281 281 280 280 280 280 281 280 280 280 279 280 279 280 280 280 280 280 280 280 281 281 282 282 282 283 283 283 283 284 285 285 286 286 286 286 286 286 287 288 288 288 288 288 288 287 287 288 288 288 288 288 288 289 289 290 290 291 291 293 296 299 302 301 300 300
273 272 271 271 268 261 260 259 260 258 260 257 254 260 266 273 277 280 279 280 279 278 279 278 278 278 278 278 279 278 280 281 280 280 279 280 280 280 279 278 278 278 279 278 279 279 279 279 280 280 280 280 280 281 282 282 282 282 282 283 283 284 285 285 285 285 285 285 285 286 287 287 287 287 287 287 287 287 287 287 287 287 288 288 288 289 289 289 289 290 291 295 297 297 296 296 298
Wind_Speed
12 11 10 9 5 3 2 2 0 3 1 2 3 1 4 0 2 5 5 7 0 2 2 2 1 1 0 3 7 3 0 3 3 2 2 1 2 9 10 10 13 14 13 10 9 10 12 14 16 18 19 18 18 18 16 15 15 15 16 16 16 16 15 14 15 15 14 13 14 14 12 11 11 12 12 13 12 12 12 12 11 11 11 9 14 15 14 13 11 14 14 14 14 14 13 12 12
9 10 10 7 4 0 0 1 2 1 3 2 7 2 5 0 2 4 6 2 3 1 1 3 2 5 7 7 6 4 3 2 1 1 0 2 7 6 7 12 15 15 12 11 9 9 10 12 16 16 18 19 18 18 16 15 16 16 16 16 16 16 15 16 16 15 15 15 14 14 12 12 12 12 12 12 13 12 12 11 11 13 11 12 13 16 15 14 13 14 14 14 12 13 12 11 11
9 9 8 5 1 2 0 2 1 1 3 3 7 7 2 3 1 6 7 3 2 3 2 2 1 3 3 4 4 1 1 0 1 0 2 3 11 5 9 12 13 14 14 10 10 9 8 11 16 16 18 19 18 18 17 16 16 15 15 16 16 16 16 16 16 15 15 16 15 14 12 12 12 13 12 13 13 13 13 12 12 12 12 13 13 14 14 15 14 14 14 13 13 12 11 10 9
7 3 3 2 0 3 1 2 3 7 4 6 4 4 2 2 3 3 4 6 3 2 1 3 3 1 2 5 2 3 2 0 1 3 3 6 3 9 10 12 11 10 9 9 10 9 8 12 16 16 16 19 19 18 17 17 16 16 15 15 15 16 16 15 15 15 15 16 14 13 13 13 13 14 14 14 14 12 12 12 13 13 14 14 13 14 15 12 12 12 12 11 11 11 10 9 8
6 5 3 1 3 0 1 2 3 4 6 4 5 2 2 1 1 4 4 3 5 2 2 1 2 2 1 4 1 1 3 1 0 2 2 1 7 10 12 12 11 10 9 9 10 9 9 16 16 16 16 19 20 19 19 18 17 16 15 15 15 14 14 14 14 15 14 14 14 14 14 14 14 14 14 15 15 15 14 14 14 14 15 15 14 13 14 13 12 9 10 12 11 11 10 8 7
5 4 0 1 1 2 3 1 1 4 5 3 2 1 5 1 3 3 3 4 2 2 2 2 1 0 2 2 1 2 0 2 2 1 3 4 13 12 14 12 11 10 9 8 8 8 9 16 16 16 16 18 19 19 19 18 17 16 16 15 14 14 13 14 14 14 14 13 14 14 15 15 15 15 15 15 16 16 15 15 14 15 15 15 14 14 13 12 11 10 9 8 11 10 9 8 7
4 4 2 1 2 2 5 3 4 4 8 4 4 2 0 4 6 4 3 4 3 4 2 0 1 2 3 0 2 1 3 4 2 2 3 9 13 13 14 12 12 11 10 8 7 7 10 16 16 16 16 18 20 20 19 17 17 16 15 14 14 13 13 13 13 13 13 14 14 14 15 15 15 15 16 16 16 16 16 16 16 15 15 14 13 12 11 11 11 9 9 8 7 9 8 8 7
1 1 0 3 1 1 1 3 5 5 5 4 5 7 1 3 5 5 9 5 3 1 1 1 1 3 1 3 2 3 5 2 3 5 11 12 13 13 12 13 12 11 10 8 7 7 11 15 15 15 15 17 19 19 19 18 16 15 14 14 13 12 12 12 12 13 13 14 14 15 15 15 15 15 16 16 16 16 16 16 16 15 13 13 12 12 12 12 11 10 9 7 8 8 8 7 6
2 1 0 6 1 1 0 5 4 2 5 4 8 6 4 4 5 5 7 5 5 1 1 1 2 3 2 4 1 3 2 5 5 9 12 12 14 14 11 13 13 11 10 9 8 7 8 13 14 14 15 16 17 17 17 17 16 16 15 14 13 13 12 12 12 12 13 13 14 15 15 15 15 14 13 16 15 15 15 15 15 14 12 11 11 12 12 10 10 10 10 9 8 8 8 7 5
1 2 1 2 3 5 2 4 3 5 4 4 6 11 10 8 9 5 6 6 9 1 4 2 1 1 1 4 0 2 0 2 7 9 8 10 12 11 12 13 14 14 11 10 9 8 7 12 13 13 14 15 15 15 16 15 15 16 15 15 14 13 13 12 12 12 13 13 14 15 15 14 14 15 14 13 14 14 14 14 13 12 11 10 11 11 10 10 9 9 9 10 9 9 9 8 6
1 2 1 2 2 4 8 5 3 4 2 3 5 8 5 11 8 9 7 7 4 2 2 3 1 2 3 1 1 3 2 3 8 8 8 10 10 11 10 11 12 13 12 11 10 9 8 8 13 13 13 13 13 13 14 14 14 15 14 13 12 12 12 13 13 12 13 14 14 13 14 12 14 12 12 11 12 11 11 13 13 12 11 11 11 10 10 9 9 9 9 9 9 10 9 9 8
2 1 1 3 4 7 3 3 1 4 5 4 4 6 9 11 6 6 9 7 6 5 3 4 2 4 2 1 1 0 1 4 6 6 8 8 9 9 10 8 10 10 12 12 10 9 9 8 7 12 13 13 12 12 13 13 13 14 13 13 13 13 13 12 12 12 13 13 14 15 13 12 11 12 11 11 11 11 11 12 12 13 12 11 11 10 10 9 9 9 9 9 9 10 9 8 7
3 0 5 4 3 2 2 1 3 1 2 3 3 9 11 8 6 11 12 10 6 5 4 8 0 3 1 0 1 0 3 4 4 6 8 8 8 8 8 8 9 9 10 10 11 10 10 8 7 8 9 12 11 10 11 12 12 12 13 12 12 12 11 11 11 12 12 14 13 12 12 10 9 13 12 11 10 11 11 11 11 12 13 12 11 11 11 11 10 10 10 9 8 9 8 7 6
2 1 4 3 1 2 3 2 1 1 2 1 4 11 5 5 5 9 7 9 7 5 3 6 2 4 1 1 1 1 4 4 3 6 6 8 8 8 9 8 8 9 9 11 10 10 9 8 8 7 8 7 6 8 10 11 11 11 11 11 11 11 10 10 10 11 11 11 13 11 10 11 10 12 11 10 9 8 8 9 10 12 13 13 12 12 12 12 11 11 10 10 10 9 9 7 5
1 0 3 1 1 1 1 2 3 4 5 6 6 13 11 2 9 12 7 12 9 4 7 6 2 1 4 4 4 6 6 5 5 5 8 9 10 9 9 9 9 8 9 9 9 10 9 8 7 7 7 6 6 5 5 8 10 10 11 11 11 11 10 10 10 9 11 9 9 10 10 9 9 10 10 10 9 8 7 8 9 10 13 13 13 13 13 12 12 10 10 10 9 9 9 8 7
1 2 2 2 0 2 1 1 4 1 3 7 9 10 12 3 5 11 10 4 7 7 12 7 8 1 2 7 4 9 6 4 3 7 10 11 9 8 9 9 8 8 8 9 9 9 9 9 7 7 7 6 5 5 6 6 8 10 9 10 11 10 11 11 11 10 9 12 9 8 9 7 7 7 10 7 9 8 7 5 6 5 9 12 13 13 13 12 11 11 10 11 11 9 9 9 8
2 3 3 2 1 2 3 2 4 2 6 5 9 9 8 10 10 3 9 2 3 7 8 10 10 4 6 4 7 13 5 4 7 9 10 8 8 7 7 7 7 7 6 8 9 9 9 9 8 7 6 7 6 5 5 6 7 10 8 9 10 10 10 10 10 10 9 9 9 10 6 4 4 4 5 4 7 5 7 7 6 5 6 12 11 11 11 11 11 11 11 12 11 11 10 9 7
2 2 5 2 1 4 3 3 4 4 3 9 10 8 9 10 16 10 14 11 9 4 14 12 14 16 10 9 11 5 4 8 6 10 8 8 7 8 8 7 8 8 7 7 7 9 9 8 9 8 7 8 7 6 5 4 5 7 6 5 5 7 7 8 7 6 6 5 7 7 5 5 5 4 4 5 3 4 5 8 6 6 6 9 10 11 10 10 11 11 11 11 10 8 10 6 4
5 1 4 4 3 2 3 4 4 5 4 6 6 6 6 4 10 8 8 13 12 11 12 13 13 16 15 15 12 9 6 4 3 5 9 10 9 10 9 7 8 8 8 7 7 9 8 8 8 8 8 8 8 6 5 5 5 5 5 5 5 6 6 6 5 5 5 5 6 5 5 4 4 3 4 4 4 6 5 7 7 7 8 8 7 9 8 9 11 11 12 10 9 8 7 5 4
3 2 3 2 0 3 4 5 4 3 4 8 8 7 4 4 7 5 4 11 6 11 12 17 14 14 12 9 14 13 11 5 5 1 3 5 6 9 9 9 8 8 8 7 7 7 7 8 9 8 8 8 8 6 5 5 5 5 5 5 5 5 5 5 5 5 5 5 6 6 5 5 4 5 5 6 5 3 4 6 8 8 8 7 7 6 6 7 11 11 10 10 5 5 5 4 4
4 6 2 3 3 2 2 6 3 6 4 6 5 5 7 8 5 4 5 11 6 7 4 6 9 12 13 4 5 6 7 9 3 4 1 1 1 2 5 7 8 7 7 7 6 8 8 8 8 8 8 8 8 7 7 6 5 5 5 5 5 6 5 5 5 5 6 6 6 5 5 4 5 5 4 4 4 3 3 3 3 3 3 3 3 3 3 4 5 4 4 4 5 5 5 5 5
1 3 4 2 4 4 0 3 3 5 6 5 5 8 6 6 2 4 3 3 7 5 9 9 5 7 11 6 3 2 2 5 7 4 4 1 2 3 3 3 4 4 6 7 8 8 9 8 9 8 8 8 8 8 8 7 7 6 6 6 5 5 6 6 6 6 6 6 6 6 6 5 5 5 5 5 5 4 4 4 4 4 3 4 3 3 3 3 3 4 5 5 5 5 5 5 4
3 2 4 3 1 3 4 3 4 4 4 5 6 4 3 4 8 3 1 4 5 5 7 8 3 4 7 4 0 2 1 2 3 5 8 8 4 2 4 5 7 7 7 7 8 8 9 9 9 8 9 8 8 7 7 7 7 7 6 6 7 6 5 6 6 6 6 6 6 6 7 6 6 6 5 5 6 5 5 5 5 4 4 4 4 4 3 3 5 4 4 4 5 4 4 4 4
6 1 4 9 4 5 5 8 3 4 4 5 4 4 4 5 10 2 10 6 6 9 8 6 4 3 4 6 3 3 3 2 4 4 3 3 10 9 3 7 6 6 7 7 8 8 9 10 10 10 9 9 8 8 8 8 7 7 7 7 7 7 7 6 6 6 6 6 6 6 6 7 7 6 6 6 6 5 6 6 6 5 5 5 5 5 5 4 3 4 4 3 4 4 4 5 5
8 5 6 7 6 6 9 8 8 2 4 5 4 5 7 4 4 6 11 10 7 6 5 8 8 6 5 4 7 4 4 3 5 6 4 3 6 5 12 5 6 6 8 8 9 9 10 10 10 11 9 10 9 8 8 8 8 7 7 7 8 8 7 7 7 6 6 6 6 6 6 6 6 6 7 6 5 6 6 6 5 6 5 6 5 5 6 5 4 4 4 4 4 5 5 5 5
4 4 5 6 6 10 7 10 10 8 4 0 5 5 7 5 6 1 9 8 6 5 6 7 7 8 7 4 4 4 6 5 7 5 8 6 5 5 6 8 5 6 9 9 10 9 10 10 11 12 11 10 9 8 8 8 8 8 8 8 8 7 8 7 7 7 6 7 7 7 7 7 7 7 7 6 6 6 6 5 5 5 6 5 5 6 5 6 5 5 4 4 4 5 5 6 5
3 6 4 6 8 5 7 7 9 9 2 1 1 5 5 5 4 4 4 9 13 9 8 7 5 6 7 6 4 4 6 9 7 8 5 6 5 1 1 6 11 8 5 6 7 9 10 10 11 11 11 10 9 9 8 8 7 8 8 8 8 8 8 7 7 7 7 7 7 8 7 7 7 6 6 7 6 6 6 6 6 5 5 5 6 6 5 6 6 6 6 6 6 6 6 6 6
5 2 5 5 6 3 7 10 15 7 4 2 3 4 3 6 1 4 10 13 13 11 10 9 6 4 4 6 5 4 7 11 14 7 6 7 6 3 5 3 2 9 11 9 5 6 8 12 12 11 11 10 10 9 9 9 8 9 8 8 8 8 8 8 7 7 7 7 7 8 7 7 7 7 7 6 7 7 6 7 6 6 6 6 6 6 6 6 6 6 6 6 6 6 6 6 6
4 3 6 9 7 6 14 10 10 4 4 6 3 2 5 6 6 9 11 11 12 12 10 9 8 5 1 4 4 6 11 14 14 14 16 11 3 2 6 6 1 3 4 8 10 5 9 11 10 11 11 10 11 10 7 8 8 8 8 8 8 8 8 8 8 8 7 7 7 8 8 8 7 7 7 7 7 7 7 7 7 7 7 6 6 7 7 6 5 5 6 5 5 5 5 6 5
3 3 5 9 11 6 13 10 15 7 5 13 3 3 7 6 8 11 13 12 12 12 14 13 9 5 1 1 6 11 16 16 15 16 15 16 7 9 11 13 15 13 7 1 3 9 8 5 7 8 10 10 10 8 7 6 4 6 6 6 8 7 7 8 8 8 8 7 7 7 8 8 8 7 7 7 7 7 7 8 8 8 7 6 6 6 7 6 6 6 7 6 6 6 7 7 7
5 4 6 4 6 6 11 5 13 14 7 13 3 6 7 10 16 15 14 12 12 13 14 15 14 11 9 12 12 12 14 15 16 18 21 18 16 15 15 15 15 17 16 15 11 10 10 1 5 6 9 10 8 4 5 5 3 3 5 3 3 6 8 7 7 7 7 7 7 7 8 8 8 7 7 8 8 7 7 7 8 7 7 7 7 7 7 7 7 8 7 7 7 7 7 7 7
7 6 6 5 6 7 10 5 11 11 6 11 5 7 8 13 14 15 12 15 16 16 14 16 17 16 15 12 13 13 12 15 18 21 19 18 17 13 15 17 15 15 14 12 13 16 14 15 10 0 6 8 10 10 9 8 8 7 6 7 5 5 5 7 7 7 8 7 8 8 8 8 8 8 7 7 7 8 7 8 8 7 7 6 7 7 7 7 7 7 7 7 7 7 6 7 6
5 7 3 6 6 7 7 9 7 13 6 13 11 7 9 12 14 16 17 16 15 16 16 17 17 16 14 13 12 13 16 18 21 20 21 17 17 15 15 16 17 17 16 17 16 15 16 14 19 20 14 3 1 5 7 7 8 7 5 4 4 1 3 4 6 7 7 8 8 8 8 9 9 8 8 7 7 8 8 8 7 7 6 7 7 6 7 7 7 7 6 7 6 7 6 6 5
6 4 3 1 4 7 6 8 8 14 10 10 12 12 8 6 16 17 19 17 16 17 16 16 15 14 14 13 13 14 16 18 20 18 19 18 15 18 15 15 17 18 14 16 17 16 13 14 14 15 14 17 10 4 1 5 7 4 4 6 7 7 8 5 4 3 6 8 8 9 9 9 9 9 9 7 7 7 7 8 7 7 7 7 6 6 7 6 6 6 7 6 6 6 6 6 6
5 7 4 2 3 1 3 6 7 9 11 12 10 15 13 13 14 17 17 15 17 17 14 14 15 15 14 15 14 15 16 20 17 17 18 17 20 17 15 16 16 15 13 17 19 17 16 16 15 15 18 16 14 13 11 7 3 1 2 2 2 3 4 3 5 5 2 3 7 10 10 9 10 10 9 9 8 7 6 6 6 7 7 7 7 7 6 6 5 5 6 6 4 6 6 7 7
5 4 3 4 5 4 6 4 4 5 9 12 13 10 12 15 15 14 17 15 17 15 14 13 14 14 15 14 15 16 16 18 14 15 15 15 14 15 15 14 14 15 18 18 20 20 19 19 14 17 17 14 14 13 11 11 3 3 3 2 2 4 4 3 6 7 4 4 7 8 9 9 9 9 10 9 8 8 7 6 7 6 6 6 7 7 7 6 7 6 7 7 6 5 5 5 4
3 1 2 5 4 5 3 2 4 1 9 10 8 13 13 14 14 13 13 15 18 17 17 15 15 14 15 14 15 16 18 17 12 13 15 15 16 15 12 13 13 19 22 21 21 21 20 16 17 20 14 14 13 13 13 11 10 6 4 3 3 3 4 1 3 3 2 4 3 4 6 8 9 9 9 9 9 8 7 7 6 6 6 7 7 8 8 8 8 8 7 6 8 7 6 4 3
0 1 2 4 1 4 3 3 6 8 8 4 11 17 14 12 15 14 10 19 18 15 14 15 15 14 13 15 15 16 12 9 12 15 16 16 15 17 15 15 20 23 18 19 19 17 17 17 19 14 14 16 16 13 9 11 10 10 7 3 3 1 2 1 1 2 4 3 2 3 3 5 5 9 9 9 9 8 7 6 7 8 7 7 8 7 6 7 7 7 5 5 5 8 7 5 4
2 0 3 2 1 4 3 3 5 1 9 6 11 17 12 13 13 15 15 13 13 13 12 12 12 13 14 15 14 14 15 15 16 15 16 15 16 16 16 15 16 14 15 17 16 17 16 18 15 15 15 14 15 14 13 12 11 11 10 9 6 2 2 3 2 1 1 5 3 2 3 3 3 6 6 8 8 8 8 8 8 7 7 7 7 7 6 7 8 9 8 9 6 4 6 3 5
2 4 2 5 1 4 1 3 7 6 1 6 8 14 9 9 10 13 13 12 12 13 12 11 10 13 15 16 14 14 16 16 18 17 16 16 15 13 15 16 12 9 12 16 16 15 15 15 15 17 16 13 12 15 13 14 12 8 11 12 13 12 10 11 10 7 4 4 5 4 5 4 3 3 5 7 6 7 8 9 8 6 8 7 8 8 7 8 7 7 8 9 8 8 6 5 6
4 1 2 3 5 3 0 3 3 3 2 2 3 8 9 11 11 10 9 8 9 12 11 11 9 11 12 10 14 15 16 15 15 16 16 16 18 17 16 14 12 14 15 13 13 15 13 15 14 12 10 12 11 15 16 15 14 16 13 15 15 14 14 13 13 14 15 12 8 6 6 6 6 6 3 5 5 8 7 8 8 8 8 7 7 8 8 9 9 8 10 9 10 10 8 5 4
5 3 1 3 2 4 2 2 2 1 0 6 4 3 6 6 7 9 7 7 9 8 10 10 11 11 13 15 14 12 12 12 14 14 14 14 14 15 15 15 16 15 15 13 12 14 13 12 15 15 11 9 12 15 16 14 14 14 17 17 16 13 13 14 14 15 12 12 13 13 15 13 10 7 6 5 7 7 9 8 8 8 7 7 7 8 9 7 8 9 10 9 11 11 11 8 7
1 4 0 3 3 1 3 3 3 3 4 6 1 2 4 1 7 7 8 7 9 7 9 10 10 12 12 13 12 12 12 10 10 11 11 13 14 14 15 15 14 15 13 11 12 13 14 14 12 13 13 12 12 13 15 15 15 14 16 14 12 12 9 9 10 9 10 12 10 13 12 12 16 16 14 12 7 7 7 8 8 9 9 9 8 9 9 10 9 9 8 9 9 9 9 10 11
4 4 8 3 1 1 2 1 5 5 1 1 7 5 4 3 7 7 9 6 8 10 10 11 10 10 12 11 11 10 9 9 10 11 11 11 12 12 12 12 13 13 11 12 12 12 14 14 12 10 9 12 13 14 15 14 12 13 15 14 12 12 12 11 12 10 10 10 11 13 11 12 14 14 15 15 17 17 13 7 7 8 9 10 9 9 10 10 9 8 10 11 10 10 10 10 10
3 8 9 4 3 2 2 4 6 5 3 5 4 2 2 3 4 6 7 6 8 9 9 9 10 10 8 9 8 9 8 8 8 8 9 10 11 11 11 12 11 11 12 12 11 11 11 12 14 14 14 12 11 14 13 13 13 13 12 12 13 11 10 9 8 10 12 12 11 11 14 13 14 14 14 16 16 17 15 15 15 9 8 9 8 8 9 10 12 12 11 10 10 10 10 10 10
4 6 2 3 4 3 3 2 4 3 2 5 4 2 4 1 3 5 5 3 6 6 6 7 7 5 6 6 7 7 6 6 7 8 7 8 8 8 8 9 11 11 10 10 11 12 12 11 14 15 15 13 13 13 12 12 13 13 14 14 15 12 10 9 9 13 13 11 12 14 12 11 12 13 14 15 17 17 16 16 14 16 15 10 7 8 9 9 10 11 12 12 13 13 11 11 12
8 2 2 3 5 3 3 3 1 1 6 3 4 2 1 1 2 2 2 2 4 3 2 3 3 4 3 4 5 5 7 7 7 8 8 7 6 7 8 11 10 10 10 11 12 12 12 13 14 15 14 13 14 15 15 15 13 12 12 13 13 13 13 12 12 14 13 13 13 13 13 12 12 12 13 14 13 15 17 15 15 16 15 16 10 7 8 9 10 11 11 12 13 14 12 12 12
6 3 2 2 3 3 2 2 2 5 2 2 1 2 1 4 1 2 1 3 4 3 1 0 2 3 3 2 3 4 5 5 6 7 8 8 9 9 9 10 10 10 10 11 10 10 12 12 13 15 15 15 14 14 15 15 13 12 12 13 13 12 11 11 12 13 13 12 13 13 10 9 12 13 14 13 14 17 14 13 15 14 14 14 16 15 11 9 10 8 9 9 10 12 12 11 12
13 6 8 5 2 5 4 7 7 2 1 1 2 4 3 4 2 2 2 3 3 2 0 1 1 2 4 4 2 1 2 3 4 5 6 7 8 10 11 10 9 10 10 10 10 10 10 11 12 13 14 14 13 13 14 14 14 13 12 11 9 7 10 13 12 13 13 12 11 11 12 12 11 11 11 11 14 16 13 14 13 14 14 15 16 15 15 17 11 8 8 9 9 10 12 13 12
9 7 2 6 4 4 1 4 2 2 3 1 2 1 2 1 4 4 4 2 2 2 0 1 1 0 1 2 3 3 2 3 3 3 4 5 7 7 7 8 8 8 10 9 9 9 9 10 11 12 12 12 12 12 13 13 12 12 12 12 12 11 11 9 8 8 10 8 9 11 11 11 10 11 10 10 10 12 12 11 12 12 12 12 12 14 15 14 16 13 10 9 10 10 9 11 12
2 1 3 4 6 2 1 1 1 2 5 4 3 1 3 2 4 3 6 3 2 2 2 2 2 2 1 1 0 1 1 2 2 3 3 4 5 5 5 6 7 7 7 7 7 7 7 9 10 11 11 12 12 12 11 12 11 12 11 11 11 11 11 11 10 9 10 10 10 10 10 10 10 11 11 10 11 11 11 13 13 12 13 13 14 15 14 14 14 13 13 11 9 9 10 11 11
2 3 4 6 1 2 2 4 2 1 4 4 3 1 2 3 0 3 1 2 3 0 0 1 1 1 1 1 1 0 0 1 1 1 2 3 2 3 4 4 4 4 5 5 6 6 6 7 8 9 10 10 11 11 10 10 10 10 11 12 12 11 10 9 9 10 10 10 10 9 9 9 9 9 9 11 12 11 11 12 12 13 14 13 13 14 15 13 14 14 13 13 14 10 9 10 10
5 5 3 3 2 3 1 1 0 1 1 3 1 4 4 5 3 5 3 1 4 3 1 1 3 3 2 2 2 1 1 1 1 1 2 2 2 3 4 4 4 4 5 6 6 5 5 5 7 9 8 8 9 9 9 9 9 10 10 11 11 11 11 12 11 12 11 10 10 10 10 10 10 10 10 10 11 11 11 12 11 11 12 13 14 14 14 13 14 13 13 15 15 16 16 13 10
1 5 3 2 2 4 2 1 3 5 1 3 2 3 4 3 3 1 4 5 6 5 4 4 4 3 3 3 3 2 1 0 1 0 0 0 1 2 3 4 4 4 4 5 5 5 4 4 4 6 7 9 8 8 9 9 9 9 9 10 10 9 9 10 9 10 9 9 10 9 10 10 12 11 10 10 11 14 13 14 14 13 12 13 13 13 14 14 14 12 13 12 11 13 13 13 13
6 0 1 1 1 3 5 3 4 4 3 5 6 4 5 6 6 1 6 7 9 7 6 3 4 4 4 4 4 3 3 2 0 0 1 1 2 2 3 4 3 4 3 3 4 4 5 4 4 4 6 5 5 6 6 7 7 6 7 9 9 8 8 8 8 8 8 9 10 9 9 10 11 11 11 13 13 14 13 14 14 14 14 14 14 14 14 13 13 12 13 12 13 13 13 13 13
1 2 4 0 5 2 2 1 2 4 3 5 6 4 3 5 4 9 9 10 8 7 5 6 6 5 5 4 3 4 4 3 3 2 1 0 0 1 1 2 4 4 4 4 4 4 5 4 4 4 4 4 5 5 5 7 6 7 8 7 7 7 7 7 7 7 8 9 10 10 10 10 11 10 11 12 12 12 13 15 14 14 15 14 15 14 14 14 13 11 12 12 13 14 14 15 15
6 8 6 5 2 1 3 1 1 1 1 1 1 6 6 5 5 7 9 8 9 9 8 7 6 6 5 5 4 4 4 4 4 3 2 1 1 0 1 2 2 3 3 3 3 3 3 3 4 4 5 5 7 5 5 5 5 5 6 8 8 8 8 8 8 7 7 8 8 8 8 9 9 10 10 12 12 13 14 13 14 14 14 15 15 15 14 13 14 14 13 13 14 14 15 13 13
3 3 2 2 1 2 2 3 2 2 2 2 2 7 8 9 2 6 7 8 7 7 8 7 7 7 6 6 5 5 4 4 5 4 4 3 2 2 2 2 1 2 3 4 4 3 4 4 3 3 4 4 5 6 5 5 5 5 5 5 7 6 6 7 8 8 9 8 8 8 8 8 9 9 10 11 12 11 12 13 13 14 14 14 14 15 14 13 14 15 15 11 13 14 15 14 13
Wind_Direction
326 323 318 313 297 264 18 15 100 303 66 248 297 290 258 148 254 339 309 311 245 267 246 303 342 344 161 176 153 163 113 129 206 122 207 240 110 151 149 131 137 141 148 151 158 160 161 165 164 164 162 161 162 161 161 161 159 159 157 156 155 148 148 156 153 150 149 149 152 130 135 139 141 138 141 143 144 147 148 143 139 132 129 129 127 123 124 124 122 122 123 117 110 107 106 107 109
319 320 315 304 288 71 285 113 95 352 32 7 254 130 248 346 19 270 269 255 213 226 241 217 131 82 57 103 113 111 18 19 234 187 102 76 107 129 141 137 143 147 149 150 155 156 159 163 164 164 162 161 162 162 161 161 160 160 160 159 156 148 156 156 155 150 153 154 154 137 136 141 144 140 141 140 140 145 146 137 134 137 134 120 121 123 123 122 120 114 114 115 110 106 106 106 107
322 331 323 336 19 67 318 37 247 159 118 234 272 205 316 351 252 255 229 240 262 258 285 290 169 72 45 36 50 95 230 140 109 66 96 146 121 182 149 144 147 147 147 150 151 154 156 163 164 161 161 162 161 161 163 162 162 161 162 161 155 154 159 155 154 154 157 156 150 136 139 144 142 139 137 138 139 141 142 135 133 136 129 119 119 112 112 119 115 116 119 123 119 110 108 107 109
320 271 272 349 13 21 71 26 98 141 173 210 292 271 212 231 232 210 226 240 261 279 282 342 45 242 89 54 149 98 70 177 214 161 141 190 208 148 145 143 141 140 144 149 151 152 156 161 159 158 160 161 159 161 163 162 164 164 164 160 156 161 160 156 155 156 161 158 146 142 140 143 143 142 140 134 133 136 132 134 136 132 131 126 123 116 109 105 113 114 115 112 114 118 114 111 109
323 302 184 124 106 110 112 197 158 127 202 185 206 282 253 94 294 308 298 305 298 71 35 324 70 322 126 122 166 124 213 87 298 204 118 112 129 143 139 137 137 141 149 150 149 151 158 157 156 157 160 162 160 161 163 165 167 165 165 158 161 165 161 157 156 158 162 155 148 145 143 142 142 140 139 136 136 138 132 134 134 134 132 127 123 119 111 111 110 110 116 121 123 124 123 116 112
297 342 47 78 114 190 54 87 260 199 234 157 239 253 222 48 19 306 287 314 304 316 133 76 157 307 29 351 150 92 270 92 203 254 146 175 139 144 138 138 137 144 147 149 151 152 158 156 155 157 160 161 160 160 162 166 167 165 164 160 165 167 161 159 158 161 162 156 153 148 146 143 143 138 138 138 138 137 134 133 131 135 129 126 121 113 111 110 114 118 119 123 129 129 129 126 120
349 9 5 34 5 62 172 180 200 208 259 179 244 212 81 339 349 358 330 0 323 337 320 122 71 64 68 288 26 59 297 230 106 225 133 149 133 138 138 139 138 143 148 149 151 154 157 155 156 159 159 160 159 160 162 164 164 165 163 165 168 167 164 164 164 159 156 156 155 151 147 145 143 140 138 138 137 136 137 136 136 133 133 132 130 128 128 124 120 120 121 132 133 132 134 137 130
229 108 304 107 181 72 220 205 221 163 269 212 263 292 263 320 315 334 305 325 284 301 310 222 141 104 236 21 138 291 0 22 261 96 117 136 135 138 140 140 140 147 148 147 151 155 157 155 157 158 157 158 160 161 162 164 163 165 166 167 167 166 170 169 156 155 161 161 159 153 149 147 142 141 139 139 138 139 140 139 138 139 138 136 132 130 126 124 128 131 132 132 144 145 142 149 137
3 78 334 76 153 36 38 217 229 231 276 304 282 263 292 270 264 259 276 266 308 277 296 230 185 89 231 38 48 281 338 350 62 105 129 137 141 144 145 147 145 149 148 148 150 155 154 157 157 158 157 159 161 161 161 161 163 166 167 167 167 170 171 163 159 162 164 162 157 154 156 152 148 137 135 137 141 140 141 142 141 141 141 138 135 128 130 132 134 136 135 142 145 149 148 148 146
30 74 215 146 122 196 236 286 173 235 222 239 266 290 294 294 293 275 273 294 257 238 244 242 199 109 95 90 318 341 6 2 96 95 127 139 141 143 146 149 149 148 148 149 150 152 155 157 157 158 158 161 162 162 158 160 161 164 165 166 169 171 165 163 165 166 162 162 163 159 159 157 144 139 140 140 142 143 141 138 136 136 136 131 132 137 138 141 140 137 141 144 150 156 158 151 149
30 3 149 90 113 190 206 237 239 297 299 306 303 276 329 333 309 288 265 257 274 232 298 255 64 145 90 221 213 259 290 110 114 130 143 140 144 144 144 148 150 148 149 151 151 151 154 158 158 158 160 162 164 161 157 159 159 161 163 164 162 161 161 164 170 169 163 167 163 166 159 152 143 143 143 140 138 138 140 143 142 141 140 139 140 143 144 144 144 147 148 152 155 159 161 159 157
68 133 30 152 198 176 242 199 279 272 291 338 287 10 334 318 318 332 299 262 255 258 214 167 235 144 54 161 210 328 61 113 137 134 138 137 146 145 142 146 151 149 147 148 149 152 154 157 157 160 159 161 166 163 157 159 161 161 162 162 163 164 162 165 174 168 171 163 167 169 165 158 147 147 143 142 143 144 147 149 150 147 146 147 148 153 147 151 151 153 154 152 155 162 167 157 155
120 153 88 87 221 145 230 142 246 235 356 286 342 333 331 331 27 333 313 277 261 249 260 209 99 70 137 209 272 330 133 197 159 131 130 137 148 143 140 142 151 141 141 143 149 156 156 156 158 159 159 160 163 160 157 161 163 164 163 163 162 163 165 166 170 164 175 167 168 180 165 161 163 149 147 146 150 152 153 155 155 152 152 153 155 153 152 155 159 159 158 152 151 156 148 154 152
101 165 127 191 51 146 150 216 337 196 281 264 20 320 356 321 0 332 327 357 301 220 239 201 92 129 92 41 297 210 201 212 172 133 117 124 133 134 138 141 143 139 143 148 152 155 159 158 156 155 154 155 156 152 157 161 164 164 164 162 157 162 162 162 165 164 167 172 170 180 166 163 166 151 150 147 151 149 148 151 153 153 157 159 158 157 158 160 164 166 161 156 154 160 164 159 148
14 207 84 117 354 76 278 151 222 185 235 15 349 342 339 1 0 341 37 346 293 307 307 64 307 74 232 149 270 204 190 203 158 119 100 109 119 126 135 140 139 139 147 151 150 155 160 158 157 152 154 149 147 146 151 161 161 159 160 158 158 160 158 158 162 162 162 163 173 167 172 164 159 149 149 151 153 153 152 154 154 157 166 164 163 161 163 166 170 169 165 161 161 159 155 150 154
120 80 80 90 320 147 276 77 345 197 246 11 336 332 336 298 33 340 348 323 271 325 34 6 15 334 274 180 221 168 169 158 125 95 101 101 104 113 128 136 138 144 150 151 155 161 159 159 156 154 153 149 149 149 148 150 152 152 155 156 158 159 158 158 156 155 150 159 184 172 173 152 154 150 152 152 153 155 156 158 163 144 169 168 167 166 168 168 176 172 169 170 166 165 159 158 157
43 85 52 30 51 105 338 41 6 355 296 344 337 4 360 319 338 267 313 267 338 22 35 26 14 351 24 314 298 124 125 119 94 96 99 104 113 121 125 133 139 143 151 160 160 161 162 159 157 156 158 153 150 149 148 149 155 150 153 156 156 154 155 155 152 154 152 165 161 169 157 134 140 143 145 151 157 158 166 171 168 160 158 168 169 170 169 169 174 182 180 178 178 176 167 163 163
54 71 121 62 185 61 358 70 27 291 329 337 351 347 352 352 342 337 339 355 1 351 37 357 18 22 17 3 17 40 114 128 134 120 125 129 131 134 144 151 153 158 159 161 169 161 160 162 162 158 159 161 153 150 151 146 152 152 152 153 152 149 148 147 147 150 148 149 154 151 150 150 146 148 147 150 157 165 172 176 167 167 169 174 171 167 171 170 175 185 188 191 190 186 154 156 167
59 73 78 167 27 284 41 34 18 17 327 321 335 344 349 2 333 334 2 330 350 12 10 4 7 9 6 2 7 14 14 41 86 121 140 146 152 151 153 154 160 154 158 163 165 167 166 162 164 164 163 161 154 153 149 145 152 151 151 152 150 148 148 148 147 144 143 147 145 150 143 141 148 151 155 161 166 167 172 174 169 166 170 168 167 163 171 177 176 187 189 192 193 156 148 158 172
4 107 71 66 158 271 55 44 7 7 308 342 352 338 348 323 346 323 13 320 346 29 6 356 3 346 349 345 349 350 355 17 7 26 124 149 155 154 157 160 164 167 158 164 160 167 166 168 171 167 163 161 157 157 149 151 155 153 154 154 152 151 149 146 147 145 148 149 153 154 152 152 153 157 168 167 150 157 174 177 174 167 170 170 172 170 164 170 183 191 184 193 165 137 152 169 174
321 67 69 332 333 44 341 28 353 337 345 331 335 313 349 342 332 1 336 359 338 340 32 2 327 330 329 324 298 324 323 331 358 354 352 68 103 135 163 166 166 159 157 148 158 170 172 173 168 168 165 164 163 159 156 162 159 150 159 157 158 158 153 154 152 153 157 157 156 155 158 156 161 164 163 157 151 155 158 174 173 167 160 163 154 157 157 171 156 165 155 146 152 155 164 182 181
40 112 89 3 335 359 103 7 340 330 309 342 331 2 328 304 313 343 48 357 286 309 318 325 324 323 332 321 229 296 340 339 336 331 318 289 175 152 130 118 119 140 146 159 171 171 177 177 174 170 168 172 171 165 166 162 158 164 164 166 159 163 164 163 160 164 166 165 163 162 158 160 169 171 168 169 168 166 171 179 187 174 167 169 150 161 168 169 163 171 161 155 168 170 178 187 194
71 323 12 3 11 314 318 358 321 0 333 340 338 310 300 340 308 265 248 265 269 269 280 288 296 320 327 314 252 269 340 289 314 331 332 324 288 204 166 165 157 164 168 173 172 177 178 178 180 171 173 174 177 172 161 159 171 173 167 166 165 172 173 166 177 176 177 171 169 165 162 172 175 180 181 178 179 175 180 185 187 183 183 179 173 163 177 197 167 179 184 183 177 176 198 201 204
91 292 341 334 347 307 311 320 313 319 323 303 271 328 334 336 326 15 322 296 269 278 275 281 286 300 337 355 283 243 224 233 248 239 198 293 327 301 222 172 180 155 166 175 176 178 180 181 180 176 177 175 179 176 166 168 175 171 174 170 178 175 171 182 184 186 178 180 176 176 173 171 176 183 191 187 189 179 189 189 188 188 186 194 185 173 177 193 186 183 192 207 198 205 206 219 223
29 342 347 309 338 316 328 320 319 318 282 272 344 339 293 287 270 333 296 296 292 278 298 307 317 325 333 3 344 327 293 274 261 258 284 198 221 307 313 284 179 170 175 176 180 179 184 179 177 180 180 181 180 175 175 177 173 174 176 179 186 177 182 186 185 178 181 186 187 182 177 177 181 183 191 195 181 191 194 192 186 195 192 198 185 197 183 188 194 190 200 209 211 216 221 232 233
26 304 317 310 317 328 332 327 322 315 305 344 348 298 291 285 277 233 263 292 289 295 312 313 326 332 339 342 329 346 324 264 251 252 241 243 228 197 236 283 264 193 198 178 178 184 181 177 177 180 180 185 181 176 180 178 179 179 183 185 186 179 192 187 179 184 188 182 190 191 190 186 184 186 192 192 185 196 196 195 191 196 198 197 184 200 208 189 199 199 207 216 219 226 227 235 232
355 291 285 295 302 344 336 331 321 321 303 236 233 287 296 323 35 311 300 309 327 330 319 311 321 322 321 321 324 337 337 330 285 241 239 247 242 219 15 333 314 288 242 193 188 182 180 178 180 180 183 181 178 181 179 182 180 188 183 185 183 187 189 186 187 189 188 192 193 191 193 195 187 185 188 189 192 194 195 193 199 196 204 203 191 203 201 202 199 205 206 211 216 222 229 233 229
306 272 306 325 334 7 347 357 360 359 355 96 183 267 312 318 68 283 316 317 321 328 325 320 321 316 302 309 326 320 4 354 352 332 274 234 232 196 171 163 273 312 312 278 213 181 179 181 181 180 178 180 179 185 178 179 187 191 186 184 188 188 183 189 191 192 194 198 196 194 196 195 191 189 184 186 189 192 197 197 199 196 207 205 197 201 200 206 203 209 215 217 218 217 228 234 230
296 16 16 330 7 39 14 355 347 1 334 331 239 9 17 359 349 313 313 319 329 330 325 327 326 329 334 304 316 17 26 21 13 13 348 319 329 4 354 345 317 212 235 306 318 303 186 186 179 180 176 175 181 179 180 187 188 187 186 190 189 185 189 189 192 195 197 200 200 201 201 201 194 188 188 183 186 192 195 196 199 203 205 204 200 203 204 204 213 220 229 226 230 229 235 245 241
36 37 44 6 1 19 3 341 355 12 352 349 31 33 299 342 324 328 334 341 338 345 342 342 339 348 87 30 18 36 31 25 21 14 6 3 5 4 27 23 18 342 301 201 289 281 272 191 184 172 173 178 190 181 174 175 205 200 192 191 188 181 192 192 196 195 196 198 200 205 206 207 200 195 183 185 185 191 197 198 198 202 205 205 203 201 205 204 209 213 225 218 231 224 227 231 230
30 294 44 29 3 320 343 350 351 12 343 353 64 60 342 2 0 355 360 1 7 14 9 11 17 27 62 51 56 54 42 36 26 21 17 17 22 29 25 17 18 27 20 357 334 292 282 242 168 182 171 174 165 134 138 158 97 160 211 226 202 179 203 207 199 197 196 199 197 205 209 209 207 199 190 181 186 188 193 200 202 203 199 200 200 203 201 207 206 213 211 218 227 227 226 224 219
11 48 346 344 40 299 334 345 12 10 330 352 48 55 13 18 1 8 12 23 32 35 23 28 38 47 52 53 51 48 48 39 35 27 18 15 17 20 26 13 10 26 15 6 9 12 8 356 339 30 164 171 172 173 177 156 185 195 183 207 187 177 206 211 208 202 198 199 200 202 205 210 210 207 199 182 182 188 191 199 204 199 198 193 201 199 198 205 207 214 213 205 214 230 222 238 226
29 66 2 347 354 328 335 6 355 355 333 21 43 67 18 17 351 16 22 28 32 39 29 30 34 41 52 51 47 45 39 36 34 24 18 18 18 21 26 28 30 28 22 14 11 12 8 7 22 9 351 350 58 190 172 166 179 188 171 174 226 186 198 213 220 213 203 199 199 204 202 205 210 208 205 198 181 187 193 198 202 202 196 196 197 198 200 202 197 209 218 212 206 220 218 236 240
16 29 29 24 9 329 344 322 23 3 32 45 43 66 39 0 19 23 24 22 34 38 30 30 31 35 41 50 50 43 42 39 31 20 17 19 19 21 23 27 29 23 23 25 21 18 7 12 19 14 10 5 341 293 264 183 194 135 137 173 184 186 215 209 218 249 228 204 198 203 200 203 208 208 206 204 198 192 192 193 194 197 196 200 202 198 210 202 201 199 220 220 212 217 226 230 244
317 347 4 348 321 269 272 350 334 21 28 54 41 53 33 19 18 29 20 19 38 36 31 30 33 33 35 40 42 44 48 47 35 25 21 22 26 20 21 25 24 22 24 27 26 20 21 18 15 18 15 4 2 2 354 321 325 192 143 132 169 210 241 195 216 220 221 268 213 201 197 199 205 207 207 202 201 199 198 198 192 192 190 197 200 206 214 210 207 203 211 226 219 222 221 222 228
279 296 296 296 341 324 333 316 315 33 42 44 45 52 35 24 16 19 28 19 40 37 33 34 36 37 36 39 41 41 41 47 40 34 25 28 28 21 24 24 31 34 31 24 24 22 18 17 16 24 15 0 357 8 6 3 339 295 234 157 245 235 225 201 223 224 205 218 231 212 197 200 199 204 208 207 205 199 197 202 200 190 191 191 200 208 216 207 208 208 219 212 219 235 235 232 215
278 273 278 282 288 291 273 14 338 315 71 41 63 58 44 29 22 9 25 32 34 33 32 33 34 36 38 37 42 43 42 40 34 38 36 32 35 30 28 30 30 40 32 23 28 26 21 14 20 23 8 8 9 5 6 2 356 344 319 300 263 304 273 245 260 281 274 253 265 274 224 203 199 204 205 204 209 203 203 201 198 197 192 198 204 214 207 208 209 206 209 199 207 223 240 213 224
120 237 253 299 216 283 284 89 27 339 102 53 69 61 42 34 28 16 14 40 32 23 32 34 36 39 39 39 39 42 46 44 36 38 35 33 33 34 32 33 32 35 25 26 31 25 21 23 26 12 13 13 12 6 360 359 2 345 333 301 298 249 275 306 310 351 285 299 320 313 309 302 248 208 203 205 206 201 202 202 203 203 195 203 212 213 213 214 213 215 206 220 215 215 235 188 198
1 10 267 296 317 237 317 121 59 293 76 67 58 67 45 31 32 26 23 38 40 24 20 32 35 41 42 39 39 40 39 35 34 33 33 32 33 35 39 37 37 34 34 34 27 23 21 28 22 17 19 14 9 10 11 2 344 356 9 4 340 312 356 7 357 19 240 258 251 278 319 283 294 302 267 217 203 207 204 202 208 209 202 197 204 215 214 221 216 215 208 214 224 228 235 200 180
6 343 4 354 308 353 78 32 13 345 118 122 65 70 52 28 29 42 31 21 45 38 15 14 29 41 46 42 38 38 39 32 31 27 25 29 35 34 38 40 30 28 34 35 28 22 25 24 24 24 23 12 8 16 14 3 346 342 25 30 24 23 18 6 12 2 345 309 288 270 252 269 296 265 288 295 267 216 206 207 209 208 210 199 198 207 208 217 218 222 219 221 217 228 222 233 171
328 226 271 313 349 356 314 357 344 325 30 39 18 64 47 19 19 21 35 16 27 40 34 18 21 46 50 45 44 39 40 35 33 28 25 25 30 32 33 33 33 37 36 31 28 29 26 19 16 15 19 17 13 14 20 6 6 20 20 25 25 20 22 20 16 13 6 352 339 343 317 314 298 289 271 265 276 276 244 219 212 211 209 206 202 209 211 213 211 214 214 218 214 222 232 224 206
333 252 275 302 286 315 331 175 154 71 13 23 11 52 33 1 19 18 358 26 26 24 38 37 20 33 42 43 39 35 40 37 36 30 27 28 29 30 30 28 33 35 35 28 30 30 25 23 20 17 13 17 19 20 21 22 19 24 31 28 22 16 17 17 15 3 354 2 3 356 2 355 334 303 280 252 256 256 257 248 229 215 215 210 206 213 216 211 210 211 212 216 221 217 225 224 230
63 341 215 297 276 298 294 337 197 56 69 322 261 129 117 12 19 8 352 18 34 20 38 41 38 28 34 42 39 34 29 28 28 31 24 27 28 30 30 31 31 36 31 24 29 28 29 27 20 21 23 22 20 25 22 29 25 25 39 40 33 27 18 17 6 4 6 3 358 4 3 3 7 0 357 345 317 269 264 265 246 229 220 216 211 216 218 216 214 211 207 212 223 225 220 230 227
348 306 360 344 93 127 337 68 116 124 157 250 23 33 95 11 14 359 343 350 27 24 25 35 39 43 36 31 36 38 31 28 33 29 29 28 30 30 33 32 33 33 27 31 31 28 29 28 21 17 22 27 25 23 30 30 34 26 35 36 34 30 22 8 5 3 16 13 3 8 7 8 6 7 6 6 4 357 342 299 269 262 245 231 223 219 223 222 219 215 209 214 220 222 220 225 234
255 326 353 356 132 136 136 130 125 145 160 40 356 343 61 30 325 352 340 356 13 26 18 18 37 38 42 38 30 34 37 35 35 37 32 29 27 29 30 34 31 29 28 28 29 29 29 27 27 25 26 22 20 25 31 30 32 31 36 33 34 32 21 5 356 11 20 18 1 9 16 7 5 6 8 6 4 358 353 350 341 309 272 265 246 239 232 226 221 218 213 213 221 225 223 225 228
286 320 13 53 77 72 46 112 131 163 72 41 332 294 92 25 314 332 339 335 0 15 20 6 6 38 40 44 40 37 32 38 37 34 35 33 29 31 30 36 34 29 28 27 30 29 26 25 29 29 27 24 19 23 26 29 32 28 32 29 29 24 21 4 9 20 22 12 8 15 16 10 4 4 5 7 2 358 355 351 349 347 329 287 266 253 248 241 235 231 224 218 216 219 217 217 223
277 298 72 27 56 36 2 47 105 81 52 7 309 287 178 116 283 289 338 303 273 321 15 7 352 2 33 37 43 32 37 35 36 36 33 36 31 33 29 38 33 31 26 28 29 26 23 24 26 29 27 23 21 21 23 28 31 30 31 28 25 21 16 13 13 20 17 16 16 17 15 6 358 5 4 2 2 357 353 352 354 347 343 340 312 277 254 250 243 235 233 231 226 221 221 223 224
14 24 53 14 347 28 31 341 32 78 9 256 291 57 355 109 275 249 232 288 287 317 72 334 340 12 352 41 41 27 24 26 29 33 33 29 31 31 33 33 31 29 29 29 27 23 24 23 21 25 23 21 21 20 23 24 24 28 29 27 23 19 17 18 18 18 17 15 14 13 9 8 9 7 360 359 358 356 355 350 349 348 349 346 346 334 309 265 253 247 243 237 234 231 228 225 224
15 21 35 92 289 27 352 6 12 32 129 266 270 338 15 0 230 212 278 278 299 327 25 90 21 346 351 4 18 42 24 20 25 29 26 26 30 27 26 25 25 27 29 26 25 26 25 23 21 24 21 17 19 18 23 22 25 24 22 22 22 13 20 21 19 19 16 14 10 8 8 11 6 5 3 359 355 351 350 350 350 352 349 348 343 338 337 335 300 248 245 251 247 239 232 230 227
8 31 70 65 50 43 31 286 260 322 309 298 14 358 108 296 290 223 220 245 239 245 224 188 120 17 346 340 348 359 6 19 28 26 27 30 28 24 24 26 27 27 26 24 22 25 24 23 22 25 22 16 16 18 18 20 22 20 18 19 18 17 18 16 16 18 15 11 8 8 9 7 4 360 355 1 351 344 347 345 343 347 347 344 340 339 342 341 341 322 275 248 244 243 241 239 235
307 333 104 144 131 141 143 234 54 251 240 277 310 56 242 142 253 202 190 214 245 213 183 190 194 200 218 244 307 352 347 6 17 28 24 31 25 20 21 21 19 19 18 21 22 22 22 24 22 21 20 17 16 16 15 18 16 14 15 16 17 19 19 16 17 13 12 10 9 10 6 4 2 353 356 352 347 349 345 343 347 349 350 348 346 346 348 347 343 336 334 306 273 257 242 236 238
264 144 106 55 16 165 124 210 174 287 334 345 349 197 202 190 249 267 259 318 305 285 18 10 345 325 348 350 340 303 310 336 342 36 23 19 11 14 23 23 19 18 17 14 23 20 22 21 21 23 21 14 14 14 16 15 13 10 12 14 15 16 15 15 15 14 13 9 6 7 2 2 358 351 352 349 348 349 346 346 347 347 346 348 350 350 348 347 346 343 336 342 335 316 280 265 258
296 49 29 249 220 114 75 2 341 219 60 269 196 323 289 301 304 238 251 268 263 296 244 288 265 275 311 306 298 303 320 338 359 6 21 1 360 16 24 23 17 21 17 16 17 17 22 17 21 22 18 16 15 13 14 12 9 12 10 11 10 11 14 14 9 7 7 5 5 4 4 359 356 358 352 351 347 348 348 348 349 351 349 347 348 349 348 347 347 345 345 344 343 339 333 314 284
59 43 290 319 77 118 126 256 330 52 116 266 25 236 301 35 286 302 216 234 249 249 235 234 260 282 274 261 259 262 253 254 260 281 276 306 356 23 13 16 23 19 15 10 7 4 14 20 23 23 19 16 8 10 11 11 10 9 7 8 9 9 9 7 7 4 2 3 2 1 357 360 1 354 352 350 349 350 351 352 352 350 351 352 351 347 347 346 347 347 344 342 339 335 329 327 320
98 187 250 78 338 4 330 87 17 349 354 303 309 304 263 186 245 194 227 217 232 235 242 257 259 261 257 263 269 266 275 288 293 304 316 342 2 354 9 13 360 6 11 6 355 359 5 14 11 21 18 10 3 2 4 5 10 8 6 3 2 3 3 4 1 359 2 4 1 359 358 356 353 353 353 352 351 351 351 351 351 348 349 351 351 350 347 346 346 344 345 341 341 339 335 330 330
359 46 22 22 104 147 32 48 170 117 269 33 297 29 261 202 222 194 211 210 214 221 230 229 230 231 236 250 250 252 257 257 256 266 260 258 292 324 331 352 350 352 355 352 354 354 6 357 11 4 3 8 4 7 4 3 0 3 1 359 0 360 358 1 358 356 2 1 357 355 353 356 356 350 352 349 350 350 349 349 349 348 347 347 349 349 349 346 344 345 344 341 338 337 338 338 337
342 24 10 1 28 203 114 29 82 178 179 179 253 329 279 262 209 175 211 203 204 197 210 214 224 230 236 230 234 246 246 248 252 240 242 250 249 298 321 315 331 331 350 352 358 350 340 357 4 357 5 2 2 356 359 351 353 356 358 357 354 354 354 354 355 356 359 356 355 353 353 351 347 353 352 350 350 348 347 347 346 348 348 346 346 346 346 346 345 343 343 340 338 341 340 339 334
142 147 95 175 29 33 62 279 6 62 75 254 117 261 272 270 199 201 196 208 197 206 194 207 220 228 228 238 247 237 242 251 242 237 236 242 247 258 287 317 337 360 347 347 335 347 348 351 342 343 351 2 352 350 350 345 349 347 352 348 347 345 347 348 351 352 354 353 352 353 348 348 351 349 353 349 348 347 346 344 345 344 345 345 343 343 342 343 343 341 340 342 342 340 337 334 335